Weather History for St. Johnsbury, VT

Change the Weather History Date:

Saturday, January 19, 2013

  Actual Average Record
Temperature  
Mean Temperature 16 °F 16 °F  
Max Temperature 29 °F 27 °F 60 °F (1996)
Min Temperature 2 °F 6 °F -34 °F (1904)
Degree Days  
Heating Degree Days 49 49  
Month to date heating degree days 836 914  
Since 1 July heating degree days 3653 3867  
Moisture  
Dew Point 16 °F    
Average Humidity 80    
Maximum Humidity 92    
Minimum Humidity 68    
Precipitation  
Precipitation 0.17 in 0.08 in 0.85 in (1999)
Month to date precipitation 0.73 1.52  
Year to date precipitation 0.73 1.52  
Sea Level Pressure  
Sea Level Pressure 30.02 in    
Wind  
Wind Speed - (North)    
Max Wind Speed -    
Max Gust Speed -    
T = Trace of Precipitation, MM = Missing Value Source: NWS Daily Summary

Daily Weather History Graph

Daily Weather History Graph

Search for Another Location

Airport:

Trip Planner

Search our weather history database for the weather conditions in past years. The results will help you decide how hot, cold, wet, or windy it might be!

Date:

Astronomy

Jan. 19, 2013 Rise Set
Actual Time 7:18 AM EST 4:40 PM EST
Civil Twilight 6:46 AM EST 5:12 PM EST
Nautical Twilight 6:10 AM EST 5:47 PM EST
Astronomical Twilight 5:35 AM EST 6:22 PM EST
Moon 11:07 AM EST (1/19) 12:46 AM EST (1/19)
Length of Visible Light 10h 25m
Length of Day
9h 21m
First Quarter, 57% of the Moon is Illuminated
Jan 19
First Quarter
Jan 26
Full
Feb 3
Last Quarter
Feb 10
New
Feb 17
First Quarter

Hourly Weather History & Observations

Time (EST) Temp. Dew Point Humidity Pressure Visibility Wind Dir Wind Speed Gust Speed Precip Events Conditions
12:54 AM 3.0 °F -2.0 °F 80% 30.28 in - North - - N/A   Unknown
1:54 AM 5.0 °F 1.0 °F 84% 30.25 in - North - - 0.01 in   Unknown
2:54 AM 6.1 °F 1.9 °F 83% 30.23 in - North - - 0.01 in   Unknown
3:54 AM 9.0 °F 5.0 °F 84% 30.18 in - North - - 0.02 in   Unknown
4:54 AM 14.0 °F 10.9 °F 88% 30.14 in - North - - 0.04 in   Unknown
5:54 AM 16.0 °F 12.9 °F 88% 30.12 in - North - - 0.04 in   Unknown
6:54 AM 17.1 °F 14.0 °F 88% 30.11 in - North - - 0.03 in   Unknown
7:54 AM 18.0 °F 15.1 °F 88% 30.10 in - North - - 0.02 in   Unknown
8:54 AM 19.9 °F 14.0 °F 78% 30.09 in - North - - N/A   Unknown
9:54 AM 21.0 °F 14.0 °F 74% 30.07 in - North - - N/A   Unknown
10:54 AM 23.0 °F 15.1 °F 72% 30.04 in - North - - N/A   Unknown
11:54 AM 25.0 °F 16.0 °F 69% 29.99 in - North - - N/A   Unknown
12:54 PM 27.0 °F 18.0 °F 69% 29.97 in - North - - N/A   Unknown
1:54 PM 28.0 °F 19.9 °F 72% 29.96 in - North - - N/A   Unknown
2:54 PM 28.0 °F 21.0 °F 75% 29.95 in - North - - N/A   Unknown
3:54 PM 28.0 °F 21.9 °F 78% 29.95 in - North - - N/A   Unknown
4:54 PM 27.0 °F 23.0 °F 85% 29.94 in - North - - N/A   Unknown
5:54 PM 27.0 °F 21.9 °F 81% 29.94 in - North - - N/A   Unknown
6:54 PM 27.0 °F 23.0 °F 85% 29.93 in - North - - N/A   Unknown
7:54 PM 26.1 °F 23.0 °F 88% 29.92 in - North - - N/A   Unknown
8:54 PM 25.0 °F 23.0 °F 92% 29.89 in - North - - N/A   Unknown
9:54 PM 25.0 °F 21.9 °F 88% 29.86 in - North - - N/A   Unknown
10:54 PM 25.0 °F 23.0 °F 92% 29.81 in - North - - N/A   Unknown
11:54 PM 25.0 °F 23.0 °F 92% 29.78 in - North - - N/A   Unknown